Weather History for Hammond, LA

Change the Weather History Date:

Monday, February 4, 2013

  Actual Average (KMSY) Record (KMSY)
Temperature  
Mean Temperature 50 °F -  
Max Temperature 60 °F 61 °F 81 °F (1957)
Min Temperature 41 °F 42 °F 19 °F (1970)
Degree Days  
Heating Degree Days 14    
Moisture  
Dew Point 47 °F    
Average Humidity 81    
Maximum Humidity 100    
Minimum Humidity 63    
Precipitation  
Precipitation 0.00 in - - ()
Sea Level Pressure  
Sea Level Pressure 30.05 in    
Wind  
Wind Speed 1 mph (ESE)    
Max Wind Speed 7 mph    
Max Gust Speed -    
Visibility 10 miles    
Events Rain    
Averages and records for this station are not official NWS values.
T = Trace of Precipitation, MM = Missing Value Source: NWS Daily Summary

Daily Weather History Graph

Daily Weather History Graph

Search for Another Location

Airport:

Trip Planner

Search our weather history database for the weather conditions in past years. The results will help you decide how hot, cold, wet, or windy it might be!

Date:

Astronomy

Feb. 04, 2013 Rise Set
Actual Time 6:50 AM CST 5:40 PM CST
Civil Twilight 6:25 AM CST 6:06 PM CST
Nautical Twilight 5:57 AM CST 6:34 PM CST
Astronomical Twilight 5:28 AM CST 7:02 PM CST
Moon 1:21 AM CST (2/4) 12:10 PM CST (2/4)
Length of Visible Light 11h 40m
Length of Day
10h 50m
Last Quarter, 37% of the Moon is Illuminated
Feb 4
Last Quarter
Feb 10
New
Feb 17
First Quarter
Feb 25
Full
Mar 4
Last Quarter

Hourly Weather History & Observations

Time (CST) Temp. Windchill Dew Point Humidity Pressure Visibility Wind Dir Wind Speed Gust Speed Precip Events Conditions
12:15 AM 44.6 °F - 41.0 °F 87% 30.13 in 10.0 mi Calm Calm - N/A   Clear
12:35 AM 42.8 °F - 41.0 °F 93% 30.13 in 10.0 mi Calm Calm - N/A   Clear
12:55 AM 41.0 °F - 41.0 °F 100% 30.13 in 10.0 mi Calm Calm - N/A   Clear
1:15 AM 42.8 °F - 41.0 °F 93% 30.12 in 10.0 mi Calm Calm - N/A   Clear
1:35 AM 42.8 °F - 41.0 °F 93% 30.11 in 10.0 mi Calm Calm - N/A   Clear
1:55 AM 41.0 °F - 41.0 °F 100% 30.11 in 10.0 mi Calm Calm - N/A   Clear
2:15 AM 44.6 °F - 41.0 °F 87% 30.11 in 10.0 mi Calm Calm - N/A   Clear
2:35 AM 44.6 °F - 41.0 °F 87% 30.12 in 10.0 mi Calm Calm - N/A   Clear
2:55 AM 44.6 °F - 42.8 °F 93% 30.11 in 10.0 mi Calm Calm - N/A   Clear
3:15 AM 48.2 °F - 39.2 °F 71% 30.10 in 10.0 mi East 4.6 mph - N/A   Clear
4:55 AM 48.2 °F - 37.4 °F 66% 30.10 in 10.0 mi Calm Calm - N/A   Clear
5:15 AM 46.4 °F 44.3 °F 37.4 °F 71% 30.09 in 10.0 mi East 4.6 mph - N/A   Clear
5:35 AM 46.4 °F - 39.2 °F 76% 30.09 in 10.0 mi Calm Calm - N/A   Clear
6:15 AM 48.2 °F - 37.4 °F 66% 30.09 in 10.0 mi Calm Calm - N/A   Clear
6:35 AM 48.2 °F - 37.4 °F 66% 30.09 in 10.0 mi Calm Calm - N/A   Clear
6:55 AM 48.2 °F - 37.4 °F 66% 30.10 in 10.0 mi Calm Calm - N/A   Clear
7:15 AM 48.2 °F - 39.2 °F 71% 30.10 in 10.0 mi Calm Calm - N/A   Clear
7:35 AM 48.2 °F - 39.2 °F 71% 30.11 in 10.0 mi Calm Calm - N/A   Clear
7:55 AM 48.2 °F - 39.2 °F 71% 30.11 in 10.0 mi Calm Calm - N/A   Clear
8:15 AM 48.2 °F - 39.2 °F 71% 30.11 in 10.0 mi Calm Calm - N/A   Clear
8:35 AM 50.0 °F - 39.2 °F 66% 30.11 in 10.0 mi Calm Calm - N/A   Clear
8:55 AM 50.0 °F - 39.2 °F 66% 30.11 in 10.0 mi East 3.5 mph - N/A   Clear
9:15 AM 50.0 °F - 39.2 °F 66% 30.12 in 10.0 mi East 4.6 mph - N/A   Clear
9:35 AM 50.0 °F - 41.0 °F 71% 30.12 in 10.0 mi Calm Calm - N/A   Clear
9:55 AM 51.8 °F - 42.8 °F 71% 30.11 in 10.0 mi East 3.5 mph - N/A   Clear
10:15 AM 53.6 °F - 42.8 °F 67% 30.11 in 10.0 mi ESE 3.5 mph - N/A   Clear
10:35 AM 55.4 °F - 44.6 °F 67% 30.11 in 10.0 mi Calm Calm - N/A   Clear
10:55 AM 57.2 °F - 46.4 °F 67% 30.10 in 10.0 mi ESE 4.6 mph - N/A   Clear
11:15 AM 57.2 °F - 46.4 °F 67% 30.10 in 10.0 mi ESE 3.5 mph - N/A   Scattered Clouds
11:35 AM 57.2 °F - 46.4 °F 67% 30.09 in 10.0 mi SE 4.6 mph - N/A   Scattered Clouds
11:55 AM 59.0 °F - 46.4 °F 63% 30.08 in 10.0 mi Calm Calm - N/A   Scattered Clouds
12:15 PM 59.0 °F - 48.2 °F 67% 30.07 in 10.0 mi Calm Calm - N/A   Scattered Clouds
12:35 PM 59.0 °F - 48.2 °F 67% 30.07 in 10.0 mi East 3.5 mph - N/A   Clear
12:55 PM 59.0 °F - 48.2 °F 67% 30.05 in 10.0 mi East 3.5 mph - N/A   Mostly Cloudy
1:15 PM 59.0 °F - 48.2 °F 67% 30.04 in 10.0 mi East 4.6 mph - N/A   Mostly Cloudy
1:35 PM 59.0 °F - 50.0 °F 72% 30.03 in 10.0 mi Calm Calm - N/A   Scattered Clouds
1:55 PM 60.8 °F - 50.0 °F 68% 30.03 in 10.0 mi East 3.5 mph - N/A   Scattered Clouds
2:15 PM 60.8 °F - 50.0 °F 68% 30.02 in 10.0 mi East 3.5 mph - N/A   Mostly Cloudy
2:35 PM 60.8 °F - 48.2 °F 63% 30.02 in 10.0 mi East 3.5 mph - N/A   Mostly Cloudy
2:55 PM 60.8 °F - 50.0 °F 68% 30.01 in 10.0 mi Calm Calm - N/A   Overcast
3:15 PM 60.8 °F - 50.0 °F 68% 30.01 in 10.0 mi Calm Calm - N/A   Light Drizzle
3:35 PM 59.0 °F - 51.8 °F 77% 30.01 in 10.0 mi Calm Calm - N/A Rain Rain
3:55 PM 57.2 °F - 53.6 °F 88% 30.01 in 10.0 mi Calm Calm - N/A   Drizzle
4:15 PM 57.2 °F - 53.6 °F 88% 29.99 in 10.0 mi East 3.5 mph - N/A Rain Light Rain
4:35 PM 57.2 °F - 53.6 °F 88% 29.99 in 10.0 mi Calm Calm - N/A   Mostly Cloudy
4:55 PM 57.2 °F - 53.6 °F 88% 29.98 in 10.0 mi ESE 3.5 mph - N/A   Overcast
5:15 PM 57.2 °F - 53.6 °F 88% 29.98 in 10.0 mi SE 3.5 mph - N/A   Mostly Cloudy
5:35 PM 57.2 °F - 53.6 °F 88% 29.99 in 10.0 mi East 3.5 mph - N/A   Scattered Clouds
5:55 PM 57.2 °F - 53.6 °F 88% 29.98 in 10.0 mi ESE 5.8 mph - N/A   Scattered Clouds
6:15 PM 57.2 °F - 53.6 °F 88% 29.99 in 10.0 mi ESE 5.8 mph - N/A   Mostly Cloudy
6:35 PM 57.2 °F - 53.6 °F 88% 29.99 in 10.0 mi SE 4.6 mph - N/A   Light Drizzle
6:55 PM 55.4 °F - 53.6 °F 94% 30.00 in 10.0 mi SSE 5.8 mph - N/A Rain Light Rain
7:15 PM 55.4 °F - 53.6 °F 94% 30.00 in 10.0 mi SE 5.8 mph - N/A Rain Light Rain
7:35 PM 55.4 °F - 53.6 °F 94% 30.00 in 7.0 mi SE 3.5 mph - N/A Rain Rain
7:55 PM 53.6 °F - 53.6 °F 100% 30.00 in 10.0 mi ESE 6.9 mph - N/A Rain Light Rain
8:15 PM 53.6 °F - 53.6 °F 100% 29.99 in 10.0 mi ESE 6.9 mph - N/A Rain Light Rain
8:55 PM 53.6 °F - 53.6 °F 100% 30.00 in 10.0 mi East 3.5 mph - N/A   Overcast
9:15 PM 55.4 °F - 55.4 °F 100% 30.00 in 10.0 mi Calm Calm - N/A   Overcast
9:35 PM 55.4 °F - 55.4 °F 100% 29.99 in 10.0 mi ESE 4.6 mph - N/A   Overcast
9:55 PM 55.4 °F - 55.4 °F 100% 29.99 in 10.0 mi Calm Calm - N/A Rain Light Rain
10:15 PM 55.4 °F - 55.4 °F 100% 29.99 in 10.0 mi Calm Calm - N/A   Overcast
10:35 PM 55.4 °F - 55.4 °F 100% 29.98 in 7.0 mi East 3.5 mph - N/A   Overcast
10:55 PM 55.4 °F - 55.4 °F 100% 29.98 in 7.0 mi Calm Calm - N/A   Overcast
11:15 PM 55.4 °F - 55.4 °F 100% 29.97 in 7.0 mi ESE 3.5 mph - N/A   Overcast
11:35 PM 57.2 °F - 57.2 °F 100% 29.97 in 7.0 mi Calm Calm - N/A   Overcast
11:55 PM 57.2 °F - 57.2 °F 100% 29.97 in 7.0 mi Calm Calm - N/A   Overcast